Regional Weather Roundup
Issued by NWS

Home | Current Version | Previous Version | Graphics & Text | Print | Product List | Glossary On
Versions: 1 2 3 4 5 6 7 8 9 10 11 12 13 14 15 16 17 18 19 20 21 22 23 24 25 26 27 28 29 30 31 32 33 34 35 36 37 38 39 40 41 42 43 44 45 46 47 48 49 50
000
ASUS43 KBIS 290510
RWRND

NORTH DAKOTA REGIONAL WEATHER ROUNDUP
NATIONAL WEATHER SERVICE BISMARCK ND
1100 PM CST FRI NOV 28 2014

NOTE: "FAIR" INDICATES FEW OR NO CLOUDS BELOW 12,000 FEET WITH NO
SIGNIFICANT WEATHER AND/OR OBSTRUCTIONS TO VISIBILITY.


NDZ001>003-009>011-017-290600-
NORTHWEST NORTH DAKOTA

CITY           SKY/WX    TMP DP  RH WIND       PRES   REMARKS
WILLISTON      CLOUDY    19  15  84 N9        29.43F WCI   8
MINOT          MOCLDY     9   5  84 NE5       29.43F WCI   1
MINOT AFB      MOCLDY     9   7  90 SE8       29.43F WCI  -3
$$

NDZ018>021-031>035-040>046-290600-
SOUTHWEST NORTH DAKOTA

CITY           SKY/WX    TMP DP  RH WIND       PRES   REMARKS
BISMARCK       PTCLDY    17  14  88 SE7       29.43F WCI   8
DICKINSON      CLOUDY    46  31  55 SW14      29.34S
GARRISON         N/A     14  11  87 E7        29.39F WCI   4
HETTINGER ARPT CLOUDY    42  30  62 CALM      29.40F
$$

NDZ004>008-012>016-024-026-027-054-290600-
NORTHEAST NORTH DAKOTA

CITY           SKY/WX    TMP DP  RH WIND       PRES   REMARKS
GRAND FORKS    CLOUDY    17  12  80 S10       29.58F WCI   5
GRND FRKS AFB  CLOUDY    16  13  85 S10       29.57F WCI   4
DEVILS LAKE    CLOUDY    14   5  67 S13       29.47F WCI   0
$$

NDZ022-023-025-028>030-036>039-047>053-290600-
SOUTHEAST NORTH DAKOTA

CITY           SKY/WX    TMP DP  RH WIND       PRES   REMARKS
FARGO          CLOUDY    21  14  74 SE15      29.57F WCI   8
JAMESTOWN      MOCLDY    16  12  84 S13       29.48F WCI   2
$$




USA.gov is the U.S. government's official web portal to all federal, state and local government web resources and services.